Location: Cardiff
(53.7833°N, 113.6000°W)
Time: 20:36:45
(UTC+00:00)

Oscar 19 - Pass Details

Date: 10 December 2023
Orbit: 771 x 789 km, 98.9° (Epoch: 04 March)

Event Time Altitude Azimuth Distance (km) Brightness Sun altitude
Rises 00:32:43 0° 207° (SSW) 3,236 14.7 -10.7°
Reaches altitude 10° 00:35:38 10° 224° (SW) 2,316 14.3 -11.1°
Maximum altitude 00:39:19 20° 271° (W) 1,740 13.4 -11.6°
Drops below altitude 10° 00:43:02 10° 317° (NW) 2,333 13.4 -12.1°
Sets 00:46:00 0° 335° (NNW) 3,269 13.9 -12.5°
